Home > Weather > Monza > Past weeks

Flag for Italy Past Weather in Monza, Italy — Yesterday and Last 2 Weeks

Now
82 °F

Passing clouds.


Feels Like: 83 °F
Forecast: 63 / 82 °F
Wind: 8 mph from Southwest

Location: Milan / Linate

Current Time: Jun 30, 2016 at 4:11:06 PM

Latest Report: Jun 30, 2016 at 3:20 PM


Visibility: N/A

Pressure: 29.95 "Hg

Humidity: 48%

Dew Point: 61 °F

Location of MonzaLocation

Past Weather in Monza — Graph

°F

Monza Temperature Yesterday

Maximum temperature yesterday: 88 °F (at 4:50 PM)
Minimum temperature yesterday: 70 °F (at 3:50 AM)
Average temperature yesterday: 79 °F

High & Low Weather Summary for the Past Weeks

 TemperatureHumidityPressure
High91 °F (Jun 24, 2:50 PM)100% (Jun 20, 12:20 AM)30.21 "Hg (Jun 20, 12:20 AM)
Low55 °F (Jun 20, 5:20 AM)25% (Jun 27, 5:50 PM)29.53 "Hg (Jun 16, 4:20 PM)
Average75 °F60%29.96 "Hg
* Reported Jun 15 2:20 PM — Jun 30 2:50 PM, Monza, Weather by CustomWeather, © 2016

Note: Actual official high and low records may vary slightly from our data, if they occured in-between our weather recording intervals... More about our weather records

Advertising

Monza Weather History for the Previous 24 Hours

Scroll right to see more
 ConditionsComfort  
Time TempWeatherWind HumidityBarometerVisibility
2:50 PM
Thu, Jun 30
84 °FPassing clouds.6 mph45%29.95 "HgN/A
2:20 PM84 °FPassing clouds.8 mph48%29.95 "HgN/A
1:50 PM84 °FPassing clouds.6 mph45%29.95 "HgN/A
1:20 PM82 °FPassing clouds.3 mph51%29.98 "HgN/A
12:50 PM82 °FPassing clouds.5 mph48%29.98 "HgN/A
12:20 PM82 °FPassing clouds.5 mph48%29.98 "HgN/A
11:50 AM82 °FPassing clouds.2 mph51%29.98 "HgN/A
11:20 AM81 °FSunny.3 mph51%29.98 "Hg10 mi
10:50 AM79 °FPassing clouds.5 mph54%29.98 "HgN/A
10:20 AM79 °FScattered clouds.6 mph54%29.98 "HgN/A
9:50 AM77 °FScattered clouds.5 mph57%29.98 "HgN/A
9:20 AM77 °FPassing clouds.5 mph57%29.98 "HgN/A
8:50 AM75 °FPassing clouds.5 mph61%29.98 "HgN/A
8:20 AM73 °FScattered clouds.7 mph65%29.98 "HgN/A
7:50 AM73 °FPartly sunny.6 mph65%29.98 "HgN/A
7:20 AM72 °FPartly sunny.6 mph69%29.95 "HgN/A
6:50 AM72 °FScattered clouds.3 mph69%29.98 "Hg6 mi
6:20 AM72 °FClear.6 mph69%29.95 "Hg6 mi
5:50 AM72 °FPassing clouds.5 mph65%29.95 "Hg6 mi
5:20 AM72 °FPassing clouds.2 mph69%29.95 "Hg6 mi
4:50 AM72 °FPassing clouds.3 mph69%29.95 "HgN/A
4:20 AM73 °FPassing clouds.5 mph65%29.95 "HgN/A
3:50 AM73 °FPassing clouds.6 mph65%29.95 "HgN/A
3:20 AM75 °FPassing clouds.7 mph61%29.92 "HgN/A
2:50 AM75 °FPassing clouds.3 mph54%29.95 "HgN/A
2:20 AM77 °FPassing clouds.3 mph44%29.95 "HgN/A
1:50 AM75 °FPassing clouds.2 mph57%29.95 "HgN/A
1:20 AM75 °FPassing clouds.2 mph54%29.95 "HgN/A
12:50 AM75 °FPassing clouds.3 mph61%29.95 "HgN/A
12:20 AM77 °FPassing clouds.5 mph54%29.95 "HgN/A
11:50 PM
Wed, Jun 29
77 °FPassing clouds.5 mph57%29.95 "HgN/A
11:20 PM77 °FPassing clouds.6 mph57%29.95 "HgN/A
10:50 PM77 °FPassing clouds.2 mph57%29.95 "HgN/A
10:20 PM77 °FClear.No wind57%29.95 "Hg10 mi
9:50 PM81 °FSunny.3 mph51%29.95 "Hg10 mi
9:20 PM81 °FSunny.No wind54%29.92 "Hg10 mi
8:50 PM82 °FSunny.3 mph42%29.92 "Hg10 mi
8:20 PM84 °FSunny.5 mph37%29.92 "Hg10 mi
7:50 PM84 °FPassing clouds.5 mph37%29.92 "HgN/A
7:20 PM86 °FPassing clouds.5 mph38%29.92 "HgN/A
6:50 PM86 °FPassing clouds.6 mph35%29.92 "HgN/A
6:20 PM86 °FPassing clouds.3 mph38%29.92 "HgN/A
5:50 PM86 °FPassing clouds.5 mph33%29.92 "HgN/A
5:20 PM86 °FPassing clouds.5 mph33%29.95 "HgN/A
4:50 PM88 °FPassing clouds.5 mph33%29.95 "HgN/A
4:20 PM86 °FPassing clouds.5 mph35%29.95 "HgN/A
Weather by CustomWeather, © 2016

See weather overviewHow to use our weather pages